CYMX

Montreal-Mirabel International Airport

Airport
ICAO code
CYMX
IATA Code
YMX
Summary
ICAO Region
NAM
ICAO Territory
Location

Montreal, Quebec,

Serving
Montreal
Elevation
270 ft
Coordinates
45° 40' 15" N , 74° 1' 58" W
KCC
Metar
CYMX 152300Z 00000KT 25SM FEW040 BKN066 BKN250 27/24 A2968 RMK SC1AC5CI2 SC TR SLP053 DENSITY ALT 2000FT

Description

An airport located 21 nm north west of Montreal city centre which was intended to replace Dorval as Montreal's main international airport but which never assumed that role. It currently survives as a relatively little-used cargo airport with closure and terminal demolition now expected.

Climatology

Humid Continental climate (Köppen climate classification Dfb) - The humid continental climate is marked by variable weather patterns and a large seasonal temperature variance. Summers are often warm and humid with frequent thunderstorms and winters can be very cold with frequent snowfall and persistent snow cover.

Runways

Designator Length Width Surface Rops
11/29 2698 61 CON Yes/Yes
6/24 3658 61 CON Yes/Yes

Airport map

Aerial View

SKYbrary Partners:

Safety knowledge contributed by: